Weather History for KAKQ - November, 2012

Change the Weather History Date:

Sunday, November 11, 2012

  Actual Average (KJGG) Record (KJGG)
Temperature  
Mean Temperature 56 °F -  
Max Temperature 72 °F 63 °F 80 °F (2006)
Min Temperature 39 °F 39 °F 25 °F (1987)
Degree Days  
Heating Degree Days 10    
Growing Degree Days 6 (Base 50)    
Moisture  
Dew Point 42 °F    
Average Humidity 70    
Maximum Humidity 93    
Minimum Humidity 34    
Precipitation  
Precipitation 0.00 in - - ()
Sea Level Pressure  
Sea Level Pressure 30.45 in    
Wind  
Wind Speed 1 mph (SSW)    
Max Wind Speed 7 mph    
Max Gust Speed -    
Visibility 9 miles    
Events      
Averages and records for this station are not official NWS values.
T = Trace of Precipitation, MM = Missing Value Source: NWS Daily Summary

Daily Weather History Graph

Daily Weather History Graph

Search for Another Location

Airport or City:

Trip Planner

Search our weather history database for the weather conditions in past years. The results will help you decide how hot, cold, wet, or windy it might be!

Date:

Astronomy

Nov. 11, 2012 Rise Set
Actual Time 6:42 AM EST 5:00 PM EST
Civil Twilight 6:15 AM EST 5:28 PM EST
Nautical Twilight 5:44 AM EST 5:59 PM EST
Astronomical Twilight 5:13 AM EST 6:30 PM EST
Moon 3:57 AM EST (11/11) 3:20 PM EST (11/11)
Length of Visible Light 11h 13m
Length of Day
10h 18m
Waning Crescent, 7% of the Moon is Illuminated
Nov 11
Waning Crescent
Nov 13
New
Nov 20
First Quarter
Nov 28
Full
Dec 6
Last Quarter

Hourly Weather History & Observations

Time (EST) Temp. Dew Point Humidity Pressure Visibility Wind Dir Wind Speed Gust Speed Precip Events Conditions
12:54 AM 45.0 °F 39.9 °F 82% 30.40 in 10.0 mi Calm Calm - N/A   Clear
1:54 AM 45.0 °F 39.9 °F 82% 30.40 in 10.0 mi Calm Calm - N/A   Clear
2:54 AM 41.0 °F 37.9 °F 89% 30.41 in 10.0 mi Calm Calm - N/A   Clear
3:54 AM 39.9 °F 37.0 °F 89% 30.42 in 8.0 mi Calm Calm - N/A   Clear
4:54 AM 39.0 °F 37.0 °F 93% 30.43 in 7.0 mi Calm Calm - N/A   Clear
5:54 AM 39.0 °F 36.0 °F 89% 30.45 in 5.0 mi Calm Calm - N/A   Clear
7:54 AM 43.0 °F 41.0 °F 93% 30.49 in 7.0 mi Calm Calm - N/A   Clear
9:54 AM 60.1 °F 44.1 °F 55% 30.50 in 10.0 mi Calm Calm - N/A   Clear
10:54 AM 66.0 °F 43.0 °F 43% 30.49 in 10.0 mi SW 5.8 mph - N/A   Clear
11:54 AM 69.1 °F 41.0 °F 36% 30.47 in 10.0 mi SW 6.9 mph - N/A   Clear
1:54 PM 72.0 °F 42.1 °F 34% 30.43 in 10.0 mi South 4.6 mph - N/A   Clear
2:54 PM 71.1 °F 42.1 °F 35% 30.43 in 10.0 mi Variable 5.8 mph - N/A   Clear
3:54 PM 70.0 °F 42.1 °F 36% 30.44 in 10.0 mi South 3.5 mph - N/A   Clear
4:54 PM 63.0 °F 46.0 °F 54% 30.43 in 10.0 mi Calm Calm - N/A   Clear
5:54 PM 55.0 °F 46.0 °F 72% 30.45 in 10.0 mi Calm Calm - N/A   Clear
6:54 PM 51.1 °F 45.0 °F 80% 30.48 in 10.0 mi Calm Calm - N/A   Clear
7:54 PM 48.9 °F 44.1 °F 83% 30.48 in 10.0 mi Calm Calm - N/A   Clear
8:54 PM 51.1 °F 44.1 °F 77% 30.48 in 10.0 mi Calm Calm - N/A   Clear
9:54 PM 51.1 °F 45.0 °F 80% 30.48 in 10.0 mi Calm Calm - N/A   Clear
10:54 PM 51.1 °F 46.0 °F 83% 30.47 in 10.0 mi Calm Calm - N/A   Clear
11:54 PM 50.0 °F 46.0 °F 86% 30.46 in 10.0 mi Calm Calm - N/A   Clear